Volver al catálogo

STARLINK-34712

ActivoComunicacionesVLEO
NORAD 64907·PAYLOAD·🇺🇸 United States

Lanzado Jul 26, 2025 desde Cape Canaveral Space Force Station

Loading…

Próximos Pases (próximas 24 horas)

TLE

ActualizadoSource: CelesTrak SupGP

Época: Sep 14, 2026, 23:11 UTC

1 64907C 25157D   26257.96645833 -.00072966  00000+0 -21536-2 0  2579
2 64907  53.1576 181.9307 0001233  84.7679  48.2036 15.34459435    11

Sigue STARLINK-34712 en tiempo real con AllMySat

Download on the App Store